Time,TemperatureF,DewpointF,PressureIn,WindDirection,WindDirectionDegrees,WindSpeedMPH,WindSpeedGustMPH,Humidity,HourlyPrecipIn,Conditions,Clouds,dailyrainin,SoftwareType,DateUTC
2013-06-22 08:02:00,53.0,-99.9,29.98,WNW,284,3.0,11.0,-999,-99.99,,,-99.99,,2013-06-22 15:02:00,
2013-06-22 08:34:00,54.0,-99.9,29.98,WNW,301,4.0,10.0,-999,-99.99,,,-99.99,,2013-06-22 15:34:00,
2013-06-22 08:43:00,54.0,-99.9,29.98,WNW,294,6.0,14.0,-999,-99.99,,,-99.99,,2013-06-22 15:43:00,
2013-06-22 09:02:00,54.0,-99.9,29.98,WNW,301,4.0,13.0,-999,-99.99,,,-99.99,,2013-06-22 16:02:00,
2013-06-22 09:12:00,54.0,-99.9,29.98,WNW,298,4.0,8.0,-999,-99.99,,,-99.99,,2013-06-22 16:12:00,
2013-06-22 10:02:00,55.0,-99.9,29.99,WNW,296,8.0,16.0,-999,-99.99,,,-99.99,,2013-06-22 17:02:00,
2013-06-22 10:11:00,55.0,-99.9,30.00,WNW,299,9.0,17.0,-999,-99.99,,,-99.99,,2013-06-22 17:11:00,
2013-06-22 10:43:00,55.0,-99.9,30.00,WNW,303,5.0,13.0,-999,-99.99,,,-99.99,,2013-06-22 17:43:00,
2013-06-22 10:52:00,55.0,-99.9,30.00,NW,310,7.0,14.0,-999,-99.99,,,-99.99,,2013-06-22 17:52:00,
2013-06-22 11:02:00,55.0,-99.9,30.00,NW,311,11.0,20.0,-999,-99.99,,,-99.99,,2013-06-22 18:02:00,
2013-06-22 11:12:00,56.0,-99.9,30.00,WNW,285,7.0,16.0,-999,-99.99,,,-99.99,,2013-06-22 18:12:00,
2013-06-22 11:34:00,56.0,-99.9,30.01,WNW,284,6.0,13.0,-999,-99.99,,,-99.99,,2013-06-22 18:34:00,
2013-06-22 11:43:00,56.0,-99.9,30.01,WNW,301,7.0,14.0,-999,-99.99,,,-99.99,,2013-06-22 18:43:00,
2013-06-22 11:52:00,56.0,-99.9,30.01,WNW,300,7.0,14.0,-999,-99.99,,,-99.99,,2013-06-22 18:52:00,
2013-06-22 12:01:00,56.0,-99.9,30.01,WNW,303,10.0,19.0,-999,-99.99,,,-99.99,,2013-06-22 19:01:00,
2013-06-22 12:43:00,57.0,-99.9,30.01,NW,315,8.0,13.0,-999,-99.99,,,-99.99,,2013-06-22 19:43:00,
2013-06-22 13:34:00,58.0,-99.9,30.01,NW,313,11.0,19.0,-999,-99.99,,,-99.99,,2013-06-22 20:34:00,
2013-06-22 13:43:00,58.0,-99.9,30.01,WNW,299,11.0,19.0,-999,-99.99,,,-99.99,,2013-06-22 20:43:00,
2013-06-22 13:53:00,58.0,-99.9,30.01,WNW,291,6.0,15.0,-999,-99.99,,,-99.99,,2013-06-22 20:53:00,
2013-06-22 14:01:00,58.0,-99.9,30.01,WNW,301,8.0,15.0,-999,-99.99,,,-99.99,,2013-06-22 21:01:00,
2013-06-22 14:34:00,59.0,-99.9,30.01,WNW,291,5.0,16.0,-999,-99.99,,,-99.99,,2013-06-22 21:34:00,
2013-06-22 14:43:00,58.0,-99.9,30.01,NW,307,8.0,17.0,-999,-99.99,,,-99.99,,2013-06-22 21:43:00,
2013-06-22 14:53:00,58.0,-99.9,30.01,WNW,288,6.0,13.0,-999,-99.99,,,-99.99,,2013-06-22 21:53:00,
2013-06-22 15:02:00,58.0,-99.9,30.00,NW,309,10.0,19.0,-999,-99.99,,,-99.99,,2013-06-22 22:02:00,
2013-06-22 15:12:00,59.0,-99.9,30.00,West,280,5.0,15.0,-999,-99.99,,,-99.99,,2013-06-22 22:12:00,
2013-06-22 15:23:00,59.0,-99.9,30.00,West,280,5.0,15.0,-999,-99.99,,,-99.99,,2013-06-22 22:23:00,
2013-06-22 15:52:00,59.0,-99.9,30.00,NW,307,11.0,18.0,-999,-99.99,,,-99.99,,2013-06-22 22:52:00,
2013-06-22 16:02:00,59.0,-99.9,30.00,NW,304,9.0,15.0,-999,-99.99,,,-99.99,,2013-06-22 23:02:00,
2013-06-22 16:11:00,59.0,-99.9,30.00,NW,304,9.0,15.0,-999,-99.99,,,-99.99,,2013-06-22 23:11:00,
2013-06-22 16:22:00,59.0,-99.9,30.00,WNW,296,8.0,14.0,-999,-99.99,,,-99.99,,2013-06-22 23:22:00,
2013-06-22 16:53:00,59.0,-99.9,29.99,WNW,303,7.0,14.0,-999,-99.99,,,-99.99,,2013-06-22 23:53:00,
2013-06-22 17:01:00,60.0,-99.9,29.99,WNW,285,6.0,10.0,-999,-99.99,,,-99.99,,2013-06-23 00:01:00,
2013-06-22 17:34:00,60.0,-99.9,29.98,WNW,289,5.0,13.0,-999,-99.99,,,-99.99,,2013-06-23 00:34:00,
2013-06-22 17:42:00,60.0,-99.9,29.98,NNW,328,4.0,11.0,-999,-99.99,,,-99.99,,2013-06-23 00:42:00,
2013-06-22 17:53:00,60.0,-99.9,29.98,WNW,286,5.0,14.0,-999,-99.99,,,-99.99,,2013-06-23 00:53:00,
2013-06-22 18:01:00,59.0,-99.9,29.98,WNW,303,7.0,13.0,-999,-99.99,,,-99.99,,2013-06-23 01:01:00,
2013-06-22 18:12:00,59.0,-99.9,29.97,NW,309,5.0,11.0,-999,-99.99,,,-99.99,,2013-06-23 01:12:00,
2013-06-22 18:32:00,59.0,-99.9,29.96,NW,309,4.0,15.0,-999,-99.99,,,-99.99,,2013-06-23 01:32:00,
2013-06-22 18:42:00,58.0,-99.9,29.96,WNW,296,6.0,12.0,-999,-99.99,,,-99.99,,2013-06-23 01:42:00,
2013-06-22 18:52:00,58.0,-99.9,29.96,West,273,2.0,9.0,-999,-99.99,,,-99.99,,2013-06-23 01:52:00,
2013-06-22 19:01:00,58.0,-99.9,29.96,WNW,291,4.0,11.0,-999,-99.99,,,-99.99,,2013-06-23 02:01:00,
2013-06-22 19:11:00,58.0,-99.9,29.96,WNW,302,4.0,12.0,-999,-99.99,,,-99.99,,2013-06-23 02:11:00,
2013-06-22 19:31:00,58.0,-99.9,29.96,WNW,286,2.0,11.0,-999,-99.99,,,-99.99,,2013-06-23 02:31:00,
2013-06-22 19:41:00,58.0,-99.9,29.96,SE,139,2.0,13.0,-999,-99.99,,,-99.99,,2013-06-23 02:41:00,
2013-06-22 19:52:00,58.0,-99.9,29.96,West,271,3.0,9.0,-999,-99.99,,,-99.99,,2013-06-23 02:52:00,
2013-06-22 20:01:00,57.0,-99.9,29.96,NW,310,1.0,10.0,-999,-99.99,,,-99.99,,2013-06-23 03:01:00,
2013-06-22 20:11:00,57.0,-99.9,29.96,SW,229,3.0,8.0,-999,-99.99,,,-99.99,,2013-06-23 03:11:00,
2013-06-22 20:31:00,56.0,-99.9,29.96,WNW,291,4.0,9.0,-999,-99.99,,,-99.99,,2013-06-23 03:31:00,
2013-06-22 20:41:00,56.0,-99.9,29.96,WSW,249,3.0,10.0,-999,-99.99,,,-99.99,,2013-06-23 03:41:00,
2013-06-22 20:52:00,56.0,-99.9,29.96,SW,222,2.0,8.0,-999,-99.99,,,-99.99,,2013-06-23 03:52:00,
2013-06-22 21:01:00,56.0,-99.9,29.95,West,269,2.0,5.0,-999,-99.99,,,-99.99,,2013-06-23 04:01:00,
2013-06-22 21:11:00,57.0,-99.9,29.95,SW,220,3.0,9.0,-999,-99.99,,,-99.99,,2013-06-23 04:11:00,
2013-06-22 21:31:00,57.0,-99.9,29.94,West,269,3.0,7.0,-999,-99.99,,,-99.99,,2013-06-23 04:31:00,
2013-06-22 21:42:00,57.0,-99.9,29.94,West,273,3.0,9.0,-999,-99.99,,,-99.99,,2013-06-23 04:42:00,
2013-06-22 21:52:00,57.0,-99.9,29.94,WNW,298,3.0,7.0,-999,-99.99,,,-99.99,,2013-06-23 04:52:00,
2013-06-22 22:01:00,57.0,-99.9,29.94,West,281,4.0,7.0,-999,-99.99,,,-99.99,,2013-06-23 05:01:00,
2013-06-22 22:11:00,57.0,-99.9,29.94,West,274,6.0,9.0,-999,-99.99,,,-99.99,,2013-06-23 05:11:00,
2013-06-22 22:32:00,57.0,-99.9,29.94,WNW,287,6.0,11.0,-999,-99.99,,,-99.99,,2013-06-23 05:32:00,
2013-06-22 22:42:00,57.0,-99.9,29.94,WNW,287,7.0,11.0,-999,-99.99,,,-99.99,,2013-06-23 05:42:00,
2013-06-22 22:52:00,57.0,-99.9,29.94,West,281,7.0,10.0,-999,-99.99,,,-99.99,,2013-06-23 05:52:00,
2013-06-22 23:02:00,57.0,-99.9,29.94,WNW,287,6.0,9.0,-999,-99.99,,,-99.99,,2013-06-23 06:02:00,
2013-06-22 23:12:00,57.0,-99.9,29.94,WNW,293,4.0,9.0,-999,-99.99,,,-99.99,,2013-06-23 06:12:00,
2013-06-22 23:33:00,56.0,-99.9,29.93,West,278,7.0,9.0,-999,-99.99,,,-99.99,,2013-06-23 06:33:00,
2013-06-22 23:43:00,56.0,-99.9,29.93,WNW,288,6.0,10.0,-999,-99.99,,,-99.99,,2013-06-23 06:43:00,
2013-06-22 23:52:00,56.0,-99.9,29.93,WNW,285,8.0,11.0,-999,-99.99,,,-99.99,,2013-06-23 06:52:00,